Location: ?
(35.4214°N, 139.3011°E)
Time: 03:49:25
(UTC+00:00)

Cosmos-2242 - Visible Passes

Search period start: 22 October 2020 00:00
Search period end: 01 November 2020 00:00
Orbit: 590 x 618 km, 82.5° (Epoch: 21 October)

Date Brightness Start Highest point End Pass type
(mag) Time Alt. Az. Time Alt. Az. Time Alt. Az.
26 Oct 6.3 20:15:25 10° NE 20:16:44 11° ENE 20:18:03 10° E visible
27 Oct 5.9 20:26:25 10° NNE 20:29:33 19° ENE 20:32:41 10° ESE visible
30 Oct 4.2 09:16:32 10° SSE 09:18:40 25° SE 09:18:40 25° SE visible
31 Oct 2.8 09:28:46 10° S 09:32:57 68° E 09:33:13 66° ENE visible
31 Oct 6.2 19:40:29 10° NE 19:42:23 13° ENE 19:44:18 10° E visible
